Wind_Speed
25 24 23 23 24 24 22 19 18 18 17 17 16 17 16 15 16 16 18 19 21 23 24 27 33 36 37 37 34 32 29 28 26 23 22 21 20 20 20 19 20 20 20
25 26 26 26 26 25 21 18 17 17 17 17 17 17 17 17 16 17 17 19 20 21 23 25 30 36 37 38 35 33 32 30 27 24 23 23 22 21 22 22 21 21 22
28 29 29 28 27 24 20 18 17 17 18 18 18 19 19 20 20 19 19 21 21 22 23 23 25 33 38 37 35 33 32 31 29 26 24 24 24 23 24 25 25 24 24
29 29 29 26 23 20 18 17 17 18 19 19 20 21 22 22 22 22 22 22 22 22 22 23 23 28 36 39 36 34 33 32 32 29 27 26 27 26 26 26 25 25 25
26 26 26 23 19 17 18 19 19 18 18 19 20 21 22 23 23 23 23 22 22 22 21 20 18 20 30 37 37 35 32 31 31 30 28 28 28 30 30 29 28 28 28
23 23 24 23 21 20 21 21 22 21 20 21 21 22 23 23 24 25 25 24 23 23 21 19 18 18 20 27 34 35 33 32 32 32 30 29 29 31 31 30 30 30 31
21 21 21 22 22 22 23 23 23 23 24 24 24 25 25 24 24 24 25 26 25 24 23 21 20 20 20 21 26 31 31 30 30 30 30 29 30 30 31 31 30 30 31
19 20 20 20 21 22 22 22 23 24 24 24 24 25 25 25 24 24 25 26 26 26 25 24 23 23 23 23 23 25 26 27 28 29 29 30 30 30 30 29 28 28 28
20 21 21 21 21 22 23 23 24 24 24 23 24 24 23 24 24 25 26 26 27 27 28 27 26 26 26 26 26 27 26 26 27 28 29 29 30 31 30 30 29 29 29
22 22 22 22 23 23 23 22 21 20 20 20 21 21 21 22 23 24 25 25 26 26 27 28 28 26 25 26 27 28 29 29 28 28 28 28 29 30 31 31 31 31 31
21 22 22 22 22 21 19 18 17 16 17 18 19 21 23 25 25 25 26 25 26 26 26 27 27 26 25 25 25 26 28 28 29 30 30 30 30 30 31 32 33 34 35
21 21 21 20 20 18 17 16 15 15 17 19 21 24 26 28 29 29 28 27 26 26 26 25 25 24 24 23 23 24 24 24 25 26 28 29 29 29 30 31 32 33 35
20 20 20 19 19 17 17 16 15 16 19 22 25 28 30 31 31 32 31 29 27 26 25 25 24 23 22 22 21 21 21 22 23 23 24 25 26 27 28 29 31 31 32
20 21 20 18 17 15 14 14 14 16 19 22 24 26 27 28 28 29 29 29 27 25 23 23 22 21 21 21 20 19 18 18 19 19 19 20 22 23 23 25 27 30 31
21 22 21 18 15 13 12 12 14 17 19 20 22 22 24 24 23 22 24 25 24 21 20 19 20 20 20 20 21 20 20 19 19 18 18 19 21 22 23 24 26 28 31
22 22 20 17 14 12 11 13 14 16 17 18 19 19 18 15 11 12 17 20 21 19 18 18 18 19 19 21 22 22 22 21 21 20 21 22 23 24 24 25 26 28 30
21 19 16 14 11 10 10 11 13 14 15 15 16 15 13 9 4 5 11 14 14 16 16 16 16 16 16 17 17 17 18 19 20 21 22 24 26 27 28 27 27 27 27
18 15 12 11 9 8 8 10 12 13 14 14 13 13 12 10 7 6 6 6 8 11 13 14 15 15 15 15 16 16 17 18 19 21 23 25 27 28 29 30 31 31 31
15 13 12 11 9 8 7 9 12 13 14 13 12 13 13 12 10 7 6 5 5 7 9 11 12 13 14 15 16 17 19 20 22 24 25 26 27 28 29 31 32 34 35
15 14 13 12 10 8 8 10 12 14 14 14 14 14 14 13 13 11 8 5 1 3 5 8 9 10 12 13 15 16 18 21 22 24 25 26 26 27 28 30 31 33 34
15 15 14 13 12 11 11 13 14 15 16 16 16 15 14 14 13 12 11 9 6 5 5 6 7 8 9 10 11 13 15 17 19 21 23 24 25 26 27 28 29 30 31
14 14 14 14 14 14 14 15 16 17 18 17 17 17 16 16 15 15 14 13 12 10 7 4 2 3 4 5 6 8 10 13 16 19 21 23 24 26 28 29 30 30 28
14 13 13 14 14 13 14 15 16 17 18 18 19 19 19 18 17 17 16 16 15 14 12 10 7 5 4 1 2 5 9 13 16 19 21 22 24 25 26 26 27 26 26
13 12 12 12 12 12 12 13 14 15 17 17 19 20 20 20 19 19 18 18 17 17 16 15 13 10 8 7 7 9 12 15 18 20 21 21 22 22 22 22 22 22 23
11 11 11 11 10 10 11 12 13 14 15 15 17 18 19 19 19 19 19 19 18 18 17 16 14 13 11 11 12 14 16 19 21 23 23 22 21 21 21 22 22 23 23
8 9 10 10 10 10 11 11 12 13 13 14 15 16 16 17 18 18 17 17 16 16 16 15 14 13 12 13 14 17 20 22 25 26 25 23 22 20 20 20 21 22 24
Wind_Direction
301 303 304 304 308 307 301 294 287 281 279 278 277 277 275 270 269 271 268 266 268 269 269 260 248 242 240 237 236 233 233 236 237 238 238 240 243 245 244 243 247 249 248
305 304 305 306 307 304 298 295 289 281 277 274 274 273 273 273 273 273 269 270 275 272 273 269 253 244 240 236 236 235 232 232 233 237 239 241 243 244 245 245 248 251 252
309 309 308 304 302 297 291 295 295 287 278 271 271 274 275 275 274 271 270 270 274 274 273 276 266 246 236 231 232 233 233 232 232 236 239 245 247 246 248 249 250 252 255
306 307 308 305 298 290 287 296 297 290 281 272 269 271 274 276 275 271 268 270 273 275 275 274 273 249 233 227 226 230 234 235 236 240 245 249 250 249 251 253 255 256 255
303 306 309 306 296 284 283 293 295 290 283 275 271 269 269 270 271 271 269 270 272 274 278 274 271 252 232 226 226 229 232 234 238 243 248 250 251 253 254 255 258 260 257
302 305 307 304 296 287 285 289 289 287 284 279 274 271 269 267 268 268 267 265 265 267 269 269 260 252 242 234 229 229 232 237 241 245 248 250 254 255 256 257 260 261 256
300 302 303 302 298 292 288 288 286 286 286 283 277 273 271 269 269 269 268 264 261 260 260 260 257 253 252 248 238 235 237 243 246 247 249 249 252 254 258 261 263 263 258
301 304 306 303 299 295 291 288 286 285 284 282 278 274 273 271 270 268 266 263 260 256 254 252 252 253 254 253 249 247 249 250 250 251 252 253 253 254 257 261 264 262 259
303 304 304 302 297 293 291 290 287 284 280 276 274 275 274 271 268 266 263 260 258 255 254 251 249 249 251 251 250 250 251 252 254 255 254 252 252 252 253 256 258 260 259
305 304 304 303 300 298 295 292 289 284 279 275 274 274 274 271 268 265 263 260 257 255 254 253 252 252 252 251 250 249 250 251 252 252 253 253 253 253 251 252 256 260 261
307 307 307 306 305 302 297 293 288 284 280 278 276 276 276 273 269 264 261 259 256 253 251 249 249 251 250 248 248 248 248 248 249 251 253 255 256 257 256 254 255 258 260
317 315 312 309 307 303 299 294 288 285 284 284 284 283 281 278 272 265 260 256 252 249 246 244 243 243 244 246 246 246 248 251 253 255 256 257 259 261 261 259 258 258 259
326 323 316 311 309 306 303 300 296 294 294 294 292 289 286 282 274 264 255 250 246 243 241 240 237 234 236 241 242 242 247 254 258 261 264 264 265 266 266 263 259 258 257
331 332 328 320 315 313 311 309 306 306 306 303 302 296 291 286 276 262 248 241 238 237 236 234 230 228 230 233 235 238 245 254 260 264 267 268 272 274 272 267 261 257 255
328 332 331 325 320 317 319 319 317 316 317 317 316 310 303 293 277 257 237 228 225 223 224 225 225 225 229 235 239 242 247 253 258 262 265 268 270 274 275 270 265 260 256
324 326 326 323 317 312 316 322 325 327 330 333 334 332 325 314 282 233 214 209 208 209 212 217 222 229 236 242 245 247 248 252 257 262 266 270 272 273 274 273 271 267 264
325 326 327 326 322 317 321 329 334 341 346 348 350 357 2 5 42 155 181 192 199 200 203 215 222 224 229 235 240 243 248 255 262 267 271 273 273 273 272 272 272 273 272
333 337 340 340 336 331 332 339 347 357 4 7 9 15 26 39 73 109 139 160 173 185 200 214 222 225 229 235 244 252 260 266 270 272 273 274 273 272 271 270 271 272 272
350 353 355 356 355 354 352 355 2 10 17 24 29 35 44 53 69 90 111 142 175 197 214 228 238 242 244 246 253 261 268 273 275 276 276 276 275 274 273 273 273 273 273
4 9 12 15 18 21 18 16 22 28 33 40 45 48 53 58 62 65 68 74 114 240 249 254 255 255 255 257 261 266 270 273 274 275 275 276 277 278 278 278 279 278 277
17 23 28 31 35 39 39 40 42 41 41 42 45 47 49 51 51 49 45 37 21 347 308 283 269 261 260 263 266 270 273 276 279 281 281 282 282 283 283 283 285 286 284
27 31 35 38 43 47 49 47 43 41 41 42 44 45 46 46 46 45 42 39 33 26 18 3 321 257 246 256 269 281 288 291 293 294 292 291 290 289 288 287 287 286 286
28 32 35 38 41 43 44 44 43 43 46 50 52 53 53 53 53 52 50 47 45 46 49 56 70 86 102 91 339 325 321 319 317 313 309 304 300 299 296 293 289 286 285
29 35 38 38 38 39 40 42 44 48 52 55 58 60 61 61 62 61 60 59 58 60 63 67 72 74 69 51 23 3 352 344 340 336 331 323 315 310 306 304 300 294 290
31 39 43 42 39 39 40 42 46 50 54 57 59 61 62 62 63 64 63 63 62 63 64 65 64 61 52 39 25 14 5 358 352 345 340 335 328 321 315 310 306 301 297
29 38 42 42 42 43 44 45 48 52 54 55 56 57 58 59 59 59 59 57 56 56 56 55 52 46 38 27 16 8 2 358 354 350 346 343 338 333 327 321 315 310 306
Height
5798 5795 5792 5790 5788 5786 5784 5782 5780 5779 5779 5779 5779 5779 5780 5781 5782 5783 5784 5785 5787 5788 5789 5790 5793 5798 5800 5803 5808 5812 5817 5821 5823 5825 5828 5829 5831 5832 5835 5837 5838 5840 5842
5792 5789 5787 5784 5782 5781 5780 5777 5775 5774 5775 5775 5775 5776 5776 5777 5778 5779 5779 5781 5782 5783 5783 5783 5784 5788 5791 5794 5799 5804 5809 5813 5817 5819 5821 5823 5825 5827 5829 5831 5834 5835 5837
5785 5782 5780 5778 5776 5775 5775 5773 5771 5770 5770 5771 5771 5771 5772 5772 5773 5774 5775 5776 5777 5777 5777 5776 5775 5778 5782 5786 5791 5797 5801 5805 5809 5812 5814 5817 5819 5822 5823 5825 5828 5830 5832
5779 5775 5773 5771 5770 5769 5769 5768 5767 5766 5766 5766 5766 5766 5766 5766 5767 5767 5769 5770 5770 5771 5770 5770 5769 5769 5773 5778 5784 5789 5794 5797 5801 5804 5807 5809 5812 5814 5817 5818 5821 5823 5826
5773 5770 5767 5765 5764 5763 5763 5762 5762 5762 5761 5761 5760 5759 5759 5760 5760 5760 5761 5762 5763 5764 5764 5764 5764 5764 5767 5771 5777 5782 5786 5790 5793 5796 5799 5802 5804 5806 5809 5811 5814 5815 5817
5767 5765 5763 5761 5760 5759 5758 5757 5757 5756 5756 5755 5754 5753 5753 5753 5753 5753 5753 5755 5756 5757 5758 5759 5760 5761 5763 5766 5770 5775 5779 5783 5786 5789 5792 5794 5796 5798 5800 5803 5805 5806 5808
5763 5761 5759 5757 5755 5753 5753 5752 5751 5750 5749 5748 5747 5746 5746 5746 5746 5746 5746 5747 5749 5750 5752 5753 5755 5757 5759 5761 5764 5768 5772 5775 5778 5781 5784 5787 5789 5791 5792 5794 5796 5797 5799
5758 5756 5754 5753 5751 5749 5748 5746 5744 5743 5741 5740 5739 5739 5739 5739 5738 5739 5739 5740 5741 5743 5745 5747 5750 5752 5754 5756 5759 5762 5764 5767 5770 5774 5777 5780 5782 5783 5784 5785 5786 5788 5790
5754 5752 5750 5748 5746 5744 5741 5739 5737 5735 5734 5733 5732 5731 5731 5731 5731 5731 5731 5732 5734 5736 5738 5740 5743 5745 5748 5750 5753 5756 5758 5760 5763 5765 5768 5771 5773 5775 5776 5777 5778 5779 5781
5749 5747 5745 5742 5739 5737 5734 5732 5730 5728 5727 5726 5725 5724 5723 5723 5723 5723 5723 5725 5726 5728 5730 5732 5735 5738 5740 5742 5746 5749 5751 5753 5756 5758 5760 5762 5764 5766 5767 5769 5770 5771 5772
5745 5742 5739 5736 5733 5730 5728 5726 5724 5722 5721 5720 5719 5718 5716 5715 5715 5715 5715 5717 5718 5720 5722 5724 5727 5730 5732 5735 5738 5741 5743 5745 5748 5750 5752 5754 5756 5757 5758 5760 5761 5763 5764
5740 5737 5734 5731 5728 5725 5723 5721 5719 5717 5715 5714 5712 5710 5708 5706 5705 5706 5706 5708 5710 5712 5715 5717 5720 5723 5726 5728 5731 5734 5736 5738 5740 5742 5744 5745 5747 5748 5749 5750 5752 5753 5754
5736 5733 5730 5727 5724 5721 5718 5716 5714 5712 5709 5707 5704 5701 5698 5695 5694 5694 5696 5699 5702 5705 5708 5710 5713 5716 5719 5722 5725 5728 5730 5731 5733 5735 5737 5738 5739 5739 5740 5740 5741 5742 5743
5733 5730 5726 5723 5720 5717 5714 5712 5710 5707 5704 5700 5696 5692 5687 5684 5681 5682 5685 5689 5694 5698 5701 5704 5707 5710 5713 5717 5719 5722 5724 5725 5727 5729 5730 5731 5731 5731 5731 5731 5732 5733 5734
5730 5727 5723 5720 5717 5714 5712 5709 5706 5703 5699 5695 5689 5683 5678 5673 5670 5671 5675 5681 5687 5691 5695 5698 5702 5706 5709 5712 5714 5716 5718 5720 5721 5722 5723 5724 5724 5724 5724 5724 5724 5724 5725
5727 5724 5721 5717 5715 5712 5710 5707 5703 5700 5695 5691 5685 5679 5672 5667 5663 5665 5670 5676 5682 5686 5690 5694 5698 5701 5704 5706 5709 5711 5713 5715 5716 5716 5716 5717 5717 5716 5716 5716 5716 5716 5715
5724 5721 5717 5715 5712 5710 5707 5705 5701 5698 5694 5689 5684 5678 5673 5668 5665 5666 5670 5675 5680 5683 5687 5690 5693 5696 5699 5701 5703 5706 5708 5709 5709 5709 5709 5709 5709 5708 5708 5707 5707 5706 5706
5722 5718 5715 5713 5710 5708 5706 5703 5700 5696 5693 5689 5685 5680 5676 5673 5671 5672 5674 5677 5680 5683 5686 5689 5691 5693 5696 5698 5699 5701 5702 5702 5703 5702 5702 5702 5701 5700 5699 5698 5698 5697 5696
5721 5718 5715 5712 5710 5707 5705 5703 5700 5696 5693 5690 5687 5683 5680 5678 5676 5677 5678 5680 5681 5683 5685 5687 5689 5691 5692 5694 5695 5696 5697 5697 5696 5696 5695 5694 5692 5691 5690 5689 5688 5687 5685
5722 5718 5715 5713 5710 5708 5706 5704 5701 5698 5695 5692 5689 5687 5684 5683 5682 5681 5681 5682 5683 5683 5684 5685 5686 5688 5689 5690 5691 5692 5692 5691 5690 5689 5688 5686 5685 5683 5681 5680 5677 5676 5674
5723 5720 5718 5715 5713 5711 5709 5707 5704 5701 5699 5696 5693 5691 5689 5687 5685 5684 5683 5683 5683 5682 5682 5682 5683 5684 5685 5687 5687 5687 5687 5686 5685 5683 5681 5679 5677 5675 5673 5670 5668 5666 5663
5726 5724 5722 5720 5717 5715 5713 5711 5708 5706 5703 5700 5697 5695 5692 5690 5689 5687 5686 5684 5683 5682 5681 5680 5681 5682 5683 5684 5685 5685 5684 5683 5681 5678 5676 5673 5670 5667 5664 5662 5659 5657 5654
5730 5728 5726 5724 5722 5720 5718 5716 5713 5710 5708 5705 5702 5699 5697 5695 5693 5691 5689 5687 5686 5684 5682 5681 5681 5682 5683 5684 5684 5684 5682 5681 5678 5675 5671 5667 5664 5660 5657 5653 5650 5648 5646
5733 5731 5729 5728 5726 5724 5722 5720 5717 5715 5712 5710 5707 5705 5703 5701 5698 5696 5694 5692 5690 5689 5687 5686 5686 5686 5686 5686 5685 5684 5682 5679 5675 5671 5667 5663 5659 5655 5651 5647 5644 5641 5639
5737 5735 5733 5731 5730 5728 5725 5723 5721 5719 5717 5715 5712 5710 5708 5706 5704 5702 5700 5698 5696 5694 5693 5692 5691 5690 5689 5688 5686 5684 5682 5678 5674 5669 5664 5659 5654 5649 5645 5642 5638 5635 5631
5740 5738 5736 5734 5733 5731 5728 5727 5725 5723 5721 5719 5717 5715 5713 5711 5709 5707 5705 5703 5702 5700 5698 5697 5695 5693 5691 5689 5687 5685 5681 5677 5672 5666 5660 5654 5649 5644 5640 5636 5632 5628 5624